Location: Byszew
(52.1813°N, 19.2693°E)
Time: 19:07:10
(UTC+00:00)

USA 306 - Pass Details

Date: 03 March 2021
Orbit: 564 x 577 km, 54.0° (Epoch: 17 April)

Event Time Altitude Azimuth Distance (km) Brightness Sun altitude
Rises 18:21:52 0° 277° (W) 2,773 8.1 -18.4°
Reaches altitude 10° 18:24:08 10° 280° (W) 1,873 6.8 -18.7°
Maximum altitude 18:28:23 69° 4° (N) 613 3.0 -19.4°
Enters shadow 18:29:30 46° 70° (ENE) 771 3.1 -19.5°
